Temperature
18 18 18 18 17 17 17 17 17 17 18 18 18 18 18 18 18 18 18 18 18 18 18 18 18 18 18 18 18 18 18 18 18 18 18 18 18 18 18 18 18 18 18
18 18 18 17 17 17 17 17 17 17 17 17 18 18 18 18 17 17 18 17 17 18 17 18 18 18 18 18 17 17 17 17 17 17 17 17 17 17 17 17 17 17 17
18 18 18 17 17 17 17 17 17 17 17 17 17 17 17 17 17 17 17 17 17 17 17 17 17 17 17 17 17 17 17 17 17 17 17 17 17 17 17 17 17 17 17
18 18 18 17 17 17 17 17 17 17 17 17 17 17 17 17 17 17 17 17 17 17 17 17 17 17 17 17 17 17 17 17 17 17 17 17 17 17 17 17 17 17 17
18 18 18 17 17 17 17 17 17 17 17 17 17 17 17 17 17 17 17 17 17 17 17 17 17 17 17 17 17 17 17 17 17 17 17 17 17 17 17 17 17 17 17
18 18 18 18 18 17 17 17 17 17 17 17 17 17 17 17 17 17 17 17 17 17 17 17 17 17 17 17 17 17 17 17 16 16 17 17 17 17 17 17 16 16 17
18 18 18 18 18 17 17 17 17 17 17 17 17 17 17 17 17 17 17 17 17 17 17 17 17 17 17 17 17 17 16 16 16 16 16 16 16 16 16 16 16 16 16
18 18 18 18 18 17 17 17 17 17 17 17 17 17 17 17 17 17 17 17 17 17 17 17 17 17 17 17 17 16 16 16 16 16 16 16 16 16 16 16 16 16 16
18 18 18 18 18 18 17 17 17 17 17 17 17 17 17 17 17 17 17 17 17 17 17 17 17 16 16 16 16 16 16 16 16 16 16 16 16 16 16 16 16 16 16
18 18 18 18 18 18 18 17 17 17 17 17 17 17 17 17 16 16 16 16 16 16 16 16 16 16 16 16 16 16 16 16 16 16 16 16 16 16 16 16 16 16 16
19 18 18 18 18 18 18 17 17 17 17 17 17 17 16 16 16 16 16 16 16 16 16 16 16 16 16 16 16 16 16 16 16 16 16 15 16 16 16 16 16 16 16
19 18 18 18 18 18 17 17 17 17 17 17 17 17 17 16 16 16 16 16 16 16 16 16 16 16 16 16 16 16 15 15 15 15 15 15 15 15 16 16 16 16 16
18 18 18 18 18 18 18 17 17 17 17 17 17 17 17 16 16 16 16 16 16 16 16 16 16 16 16 16 16 15 15 15 15 15 15 15 15 15 15 15 16 15 15
18 18 18 18 18 18 18 17 17 17 17 17 17 17 16 16 16 16 16 16 16 16 15 16 15 15 15 15 15 15 15 15 15 15 15 15 15 15 15 15 15 15 15
19 18 18 18 18 18 18 17 17 17 17 16 16 16 16 16 16 16 16 16 16 15 15 15 15 15 15 15 15 15 15 15 15 15 15 14 14 15 15 15 15 15 15
18 18 18 18 18 18 18 17 17 17 17 16 16 16 16 16 16 16 16 15 15 15 15 15 15 15 15 15 15 15 15 14 14 14 14 14 14 14 14 14 15 15 15
19 18 18 18 18 18 17 17 17 17 16 16 16 16 16 16 16 16 16 15 15 15 15 15 15 15 15 15 15 14 14 14 14 14 14 14 14 14 14 14 14 14 14
18 18 18 18 18 18 17 17 17 17 16 16 16 16 16 16 16 16 15 15 15 15 15 15 15 15 15 15 14 14 14 14 14 14 14 14 14 14 14 14 14 14 14
18 18 18 18 17 17 17 17 17 17 16 16 16 16 16 16 16 15 15 15 15 15 15 15 15 15 15 14 14 14 14 14 14 14 14 14 14 13 13 13 13 13 13
18 18 18 17 17 17 17 17 17 16 16 16 16 16 16 16 15 15 15 15 15 15 15 14 14 14 14 14 14 14 14 14 14 14 14 13 13 13 13 13 13 13 13
18 18 17 17 17 17 17 17 16 16 16 16 16 16 15 15 15 15 15 15 15 14 14 14 14 14 14 14 14 14 14 14 14 14 14 13 13 13 13 13 13 13 13
18 17 17 17 17 16 16 16 16 16 16 15 15 15 15 15 15 15 15 14 14 14 14 14 14 14 14 14 14 14 13 14 14 14 13 13 13 13 13 13 13 13 13
17 17 17 17 16 16 16 16 16 16 15 15 15 15 15 15 15 15 14 14 14 14 14 14 14 13 13 13 13 13 13 13 13 13 13 13 13 13 13 12 12 12 12
17 17 17 17 16 16 16 16 15 15 15 15 15 15 15 15 15 14 14 14 14 14 14 13 13 13 13 13 13 13 13 13 13 12 13 13 13 13 12 12 12 12 12
17 17 16 16 16 16 16 15 15 15 15 14 14 14 14 14 14 14 14 14 14 13 13 13 13 13 13 13 13 13 13 13 13 12 12 12 12 12 12 12 12 12 12
17 16 16 16 16 16 15 15 15 15 14 14 14 14 14 14 14 14 14 13 13 13 13 13 13 12 13 13 13 13 13 12 12 12 12 12 12 12 12 12 12 12 12
Wind_Speed
7 10 12 12 12 13 13 13 13 13 13 13 13 13 13 12 12 12 12 12 12 12 12 11 11 11 11 11 11 11 10 10 10 10 10 10 10 9 9 8 7 7 8
8 12 12 12 12 12 13 13 13 13 13 13 13 13 13 12 12 12 12 12 11 11 11 11 11 11 11 11 11 11 10 10 9 8 8 9 10 9 9 8 8 7 8
10 12 12 12 12 12 13 13 13 13 13 13 13 12 12 12 12 12 12 12 11 11 11 11 11 11 12 12 11 11 10 9 8 8 8 7 9 10 9 8 9 9 8
11 12 11 11 12 12 13 13 13 13 13 13 13 13 12 12 12 12 12 12 12 12 11 11 12 12 11 11 11 11 10 9 9 8 8 9 9 10 10 9 9 9 8
11 12 11 11 11 12 12 13 13 13 13 13 12 12 12 12 11 12 12 12 12 13 12 12 12 12 11 11 11 10 10 10 10 10 10 10 9 10 10 10 9 8 8
10 12 12 11 11 11 12 12 12 12 12 12 12 12 12 12 11 11 11 12 12 12 12 12 12 12 11 11 10 10 10 10 10 9 10 10 9 10 10 9 9 8 8
9 11 11 11 10 11 11 11 12 11 11 11 11 11 11 11 11 11 11 11 12 12 12 12 12 12 11 11 11 11 11 11 10 10 10 10 10 10 9 9 9 9 8
8 10 10 10 10 10 10 10 10 10 9 9 9 9 10 10 11 11 11 11 11 11 11 11 11 11 11 11 11 11 11 11 10 10 10 9 10 10 10 10 9 9 9
7 7 8 9 9 9 9 8 8 7 7 7 6 7 7 8 9 9 10 10 10 9 9 9 10 9 9 9 9 9 11 12 10 8 10 10 11 11 10 10 10 10 10
6 6 5 6 7 7 7 7 6 5 5 4 4 4 4 5 6 8 9 9 9 8 8 8 8 7 7 8 8 8 9 10 9 10 10 11 13 12 12 11 10 11 11
6 5 5 5 5 6 6 6 5 4 4 3 2 3 3 3 5 6 8 8 8 7 6 6 5 5 4 5 6 7 7 7 10 10 10 12 13 13 13 12 11 11 11
4 4 4 4 4 5 5 5 3 4 3 3 3 3 4 4 5 6 6 6 5 4 4 3 4 4 3 3 4 5 6 9 9 9 11 14 14 14 14 13 12 12 12
5 4 4 4 4 4 3 4 3 3 3 4 4 6 6 4 4 5 3 3 2 3 3 3 3 4 4 5 4 6 8 8 8 9 11 13 14 14 14 14 14 13 12
5 4 5 4 4 4 4 3 3 3 3 4 5 6 5 3 2 3 3 3 3 3 3 3 3 5 5 6 6 6 7 7 8 9 10 13 13 14 14 14 14 14 13
5 4 4 4 4 4 3 2 3 3 3 4 4 5 6 3 3 2 2 3 3 4 3 3 3 4 4 5 6 7 6 7 8 9 9 12 13 13 13 13 13 13 13
4 4 3 4 3 3 3 3 2 3 3 4 4 5 7 5 3 3 3 3 4 4 4 3 4 4 3 4 5 6 6 6 7 8 9 10 12 13 13 13 13 13 12
4 4 4 3 4 4 4 3 3 3 4 4 5 6 7 6 5 4 3 3 3 5 5 5 5 4 3 4 4 4 4 5 6 7 8 8 9 11 12 13 13 13 12
4 5 4 3 4 4 3 3 3 4 4 4 5 6 6 6 6 5 3 3 5 5 4 3 3 3 3 3 3 3 3 4 5 5 6 7 8 8 10 11 12 12 12
3 5 4 4 4 3 3 3 3 4 3 4 5 5 5 6 6 5 3 3 5 4 4 4 3 3 2 3 2 2 2 3 3 4 4 6 8 8 8 9 10 10 11
3 4 4 4 3 3 2 2 2 3 3 4 4 4 5 5 6 5 2 4 4 3 3 4 4 3 2 2 3 3 1 2 3 3 4 4 6 7 7 7 7 8 10
2 3 4 3 3 3 3 2 2 2 2 2 2 4 5 5 5 4 3 3 3 3 3 3 3 3 3 3 2 2 2 3 3 3 3 3 4 5 5 6 6 6 7
3 3 3 3 3 4 2 2 1 1 1 2 2 3 5 5 5 4 3 2 3 3 3 3 3 3 2 3 2 1 2 2 3 2 2 3 3 3 3 5 6 6 7
3 3 2 3 3 3 3 2 2 2 2 2 2 1 3 4 5 5 4 3 2 2 2 2 3 2 2 2 2 2 2 1 2 2 1 2 2 2 2 3 4 5 7
3 2 2 3 3 3 3 2 2 2 2 1 1 1 1 3 4 4 3 3 2 2 2 2 2 1 1 1 2 2 1 1 1 1 2 1 1 2 1 2 3 5 6
4 3 2 2 3 3 3 2 1 2 2 2 2 2 2 2 3 3 3 2 1 1 2 2 2 1 1 1 1 2 2 2 1 0 1 2 2 1 0 1 2 3 4
3 3 3 3 3 2 2 2 2 3 2 2 2 2 1 1 1 2 2 2 1 1 1 1 1 1 1 1 1 1 1 1 1 1 1 2 1 2 1 1 2 2 3
Wind_Direction
74 74 53 47 48 48 49 52 51 51 50 50 49 49 51 55 57 56 55 55 58 60 57 55 55 56 53 51 49 50 51 55 62 70 72 74 73 70 66 65 66 72 72
84 82 63 52 51 50 52 53 53 53 53 53 51 51 52 54 57 56 56 57 60 62 60 58 54 56 54 52 51 50 49 51 57 64 69 76 73 69 65 62 64 73 76
85 85 72 58 55 54 55 55 55 55 54 53 52 51 52 54 56 56 56 58 59 62 61 58 56 55 55 54 51 46 44 44 47 49 59 75 77 68 62 60 67 69 71
83 79 73 65 61 59 57 57 57 55 54 55 54 52 51 53 55 57 57 57 57 60 59 59 58 58 57 54 50 45 44 45 47 48 54 59 67 68 64 65 69 67 68
86 84 82 75 69 65 60 58 58 56 55 55 54 53 52 52 55 58 58 57 57 59 59 60 60 60 58 54 49 46 47 49 47 48 55 57 62 67 65 66 69 70 71
93 92 91 84 78 72 66 62 61 58 57 55 55 55 54 52 55 60 60 59 60 61 60 61 61 60 57 52 48 44 42 43 47 54 58 57 61 63 65 67 70 73 74
94 97 98 94 86 81 74 68 64 61 59 57 56 57 56 54 59 63 62 64 63 64 62 62 61 60 57 54 49 43 39 37 59 60 61 59 61 66 67 68 69 68 70
98 106 107 106 99 92 84 76 70 64 61 60 59 58 60 61 65 65 65 66 65 64 64 63 62 61 57 55 49 43 37 41 58 62 62 61 63 67 69 71 71 67 65
93 103 117 121 114 108 100 89 80 73 68 67 67 67 66 67 72 71 69 69 67 65 64 64 63 61 59 57 50 44 45 44 45 57 63 61 63 65 68 68 72 72 70
86 93 103 110 114 119 117 106 100 88 78 82 77 72 82 84 86 83 77 73 72 69 66 64 65 63 59 59 51 45 50 44 50 54 64 62 60 63 63 64 69 72 73
79 82 86 95 97 91 98 102 119 99 73 76 84 52 68 95 95 86 87 86 81 78 71 62 55 58 63 63 56 50 55 62 62 61 62 61 60 60 60 64 70 74 76
84 79 85 86 88 86 78 98 100 89 84 55 52 65 43 60 76 83 97 93 92 89 75 49 32 48 47 65 65 59 65 68 64 71 67 64 63 61 61 64 72 77 77
81 70 70 68 78 80 84 81 68 69 64 48 39 62 50 48 76 89 98 104 85 78 54 50 53 46 46 48 58 69 63 67 68 70 71 66 64 64 64 65 69 75 76
84 67 63 59 71 67 71 84 74 56 54 48 32 61 58 40 58 76 74 65 60 68 52 36 40 45 40 45 50 57 64 74 77 76 72 68 64 64 66 66 67 68 71
90 74 63 57 60 70 75 53 72 62 42 47 31 47 64 50 46 58 65 58 42 48 54 38 42 46 37 42 45 50 55 68 80 82 79 70 66 64 63 67 66 66 67
94 84 70 70 71 70 71 62 54 64 68 48 37 41 57 56 58 53 55 52 42 40 40 44 49 45 46 47 45 48 49 60 76 90 96 81 70 66 62 61 64 64 64
101 98 76 82 75 68 70 70 63 56 58 46 38 29 49 53 59 52 43 45 45 44 43 47 46 38 43 53 52 53 54 55 67 80 93 96 84 69 64 61 59 60 59
93 94 83 67 69 68 69 76 62 65 57 50 46 24 32 44 61 56 43 44 49 47 44 53 51 34 34 43 40 38 52 58 62 74 91 95 91 83 71 66 61 57 56
88 94 92 76 67 68 78 89 66 68 60 56 49 31 20 30 53 60 45 52 51 47 35 40 46 32 33 42 51 58 66 76 62 64 69 83 86 93 89 80 70 61 58
90 94 94 89 80 72 58 73 73 66 62 50 48 36 27 31 48 59 55 59 59 58 41 37 34 29 23 25 37 45 59 90 65 58 61 72 83 86 93 94 88 74 61
98 89 90 81 76 66 43 47 53 55 73 59 56 40 40 42 45 57 48 58 64 64 57 51 38 23 18 22 41 25 24 66 65 62 57 61 71 78 85 93 94 88 78
105 88 92 86 79 80 68 55 66 81 89 89 59 45 43 39 38 48 53 62 69 72 56 51 59 30 9 28 41 44 20 13 1 63 63 55 58 68 66 75 83 86 87
113 104 98 100 94 87 84 67 50 51 45 56 54 47 39 39 38 35 35 57 66 79 76 56 69 66 13 354 24 55 68 350 319 346 52 62 57 60 41 67 75 83 86
118 109 102 88 84 81 81 70 65 63 53 48 47 57 48 49 45 37 31 47 59 67 78 56 62 59 69 350 340 5 29 87 70 329 334 30 44 47 39 41 65 84 83
124 116 103 85 77 83 90 90 78 65 58 50 54 57 57 50 49 48 41 40 47 88 102 87 65 48 57 41 14 353 360 21 22 83 313 326 342 336 43 45 64 85 93
114 121 116 95 74 73 93 105 95 85 74 54 46 39 31 43 33 50 57 47 39 56 89 102 112 92 60 23 23 29 32 21 343 356 320 317 315 299 316 81 83 95 87
Height
1522 1520 1518 1517 1515 1514 1513 1512 1512 1511 1511 1510 1509 1509 1508 1508 1507 1507 1506 1506 1506 1505 1505 1505 1505 1505 1505 1504 1504 1504 1503 1504 1504 1504 1504 1505 1505 1505 1506 1506 1506 1506 1506
1523 1521 1519 1518 1517 1516 1515 1514 1513 1513 1512 1512 1511 1510 1510 1509 1509 1508 1508 1507 1507 1507 1507 1507 1506 1506 1506 1505 1505 1505 1505 1505 1505 1505 1505 1505 1506 1506 1506 1506 1506 1507 1507
1523 1522 1521 1520 1518 1518 1517 1516 1515 1515 1514 1513 1513 1512 1511 1511 1510 1509 1509 1509 1508 1508 1508 1508 1508 1507 1507 1507 1506 1506 1506 1506 1506 1506 1506 1506 1506 1506 1506 1506 1507 1507 1507
1525 1523 1522 1521 1520 1519 1518 1518 1517 1516 1515 1515 1514 1513 1513 1512 1511 1511 1510 1510 1510 1509 1509 1509 1509 1509 1508 1508 1507 1507 1506 1507 1507 1507 1507 1507 1507 1507 1507 1507 1507 1507 1507
1526 1525 1524 1523 1522 1521 1520 1519 1519 1518 1517 1516 1516 1515 1514 1513 1512 1512 1512 1511 1511 1511 1510 1510 1510 1510 1509 1509 1509 1508 1508 1508 1508 1508 1508 1508 1507 1507 1507 1507 1507 1507 1508
1527 1526 1525 1524 1523 1523 1522 1521 1520 1520 1519 1518 1517 1516 1515 1514 1513 1513 1513 1513 1513 1512 1512 1512 1511 1511 1511 1511 1510 1510 1510 1510 1509 1509 1509 1508 1508 1507 1507 1507 1507 1508 1508
1528 1527 1527 1526 1525 1524 1524 1523 1522 1521 1520 1519 1519 1518 1517 1515 1514 1514 1515 1514 1514 1514 1514 1513 1513 1513 1512 1512 1512 1511 1511 1511 1510 1510 1509 1509 1508 1508 1507 1507 1507 1507 1508
1529 1529 1528 1527 1527 1526 1526 1525 1524 1523 1522 1521 1520 1520 1519 1518 1516 1517 1516 1516 1516 1516 1515 1515 1515 1514 1514 1514 1513 1513 1513 1512 1512 1511 1510 1509 1508 1508 1507 1507 1507 1507 1507
1530 1530 1529 1528 1528 1528 1527 1526 1526 1525 1524 1523 1522 1521 1521 1520 1519 1519 1518 1518 1518 1517 1517 1517 1516 1516 1516 1515 1515 1515 1514 1513 1513 1512 1511 1510 1509 1508 1507 1506 1506 1506 1507
1532 1531 1531 1530 1530 1529 1528 1528 1527 1526 1525 1525 1524 1523 1522 1521 1521 1520 1520 1520 1520 1519 1519 1518 1518 1518 1518 1517 1517 1516 1516 1514 1514 1513 1512 1511 1510 1508 1506 1505 1505 1505 1506
1533 1532 1532 1532 1531 1531 1530 1529 1529 1528 1527 1526 1525 1525 1524 1523 1522 1522 1522 1521 1521 1521 1521 1520 1520 1520 1519 1519 1519 1518 1517 1516 1515 1514 1513 1512 1510 1508 1505 1503 1503 1504 1506
1533 1534 1533 1533 1533 1532 1531 1530 1530 1529 1528 1527 1526 1526 1525 1524 1524 1523 1523 1523 1523 1523 1522 1522 1522 1521 1521 1521 1520 1519 1518 1517 1516 1515 1514 1513 1511 1509 1506 1503 1503 1504 1506
1534 1534 1534 1534 1533 1533 1532 1531 1531 1530 1529 1529 1528 1527 1526 1525 1525 1524 1524 1524 1524 1524 1523 1523 1523 1523 1522 1522 1522 1521 1520 1519 1517 1516 1515 1514 1513 1511 1508 1506 1506 1507 1508
1535 1535 1535 1534 1534 1533 1533 1532 1532 1531 1530 1529 1529 1528 1526 1525 1525 1525 1525 1525 1525 1525 1525 1524 1524 1524 1523 1523 1523 1522 1521 1520 1519 1518 1516 1516 1514 1513 1511 1509 1509 1509 1510
1535 1535 1535 1535 1535 1534 1533 1533 1533 1532 1531 1530 1530 1529 1527 1526 1526 1526 1526 1526 1526 1526 1526 1525 1525 1525 1524 1524 1524 1523 1522 1521 1520 1519 1518 1517 1516 1514 1513 1512 1511 1511 1511
1535 1535 1535 1535 1534 1534 1534 1533 1533 1533 1532 1531 1530 1530 1529 1528 1527 1526 1527 1527 1527 1526 1526 1526 1526 1525 1525 1524 1524 1524 1523 1522 1521 1521 1519 1518 1517 1516 1515 1514 1513 1513 1512
1535 1535 1535 1535 1535 1534 1534 1534 1533 1533 1533 1532 1531 1530 1530 1529 1528 1527 1527 1527 1527 1527 1527 1526 1526 1526 1525 1525 1525 1524 1524 1523 1523 1522 1521 1519 1519 1518 1516 1515 1514 1514 1513
1535 1535 1535 1535 1535 1534 1534 1534 1534 1533 1533 1532 1531 1531 1530 1530 1529 1528 1528 1528 1527 1527 1527 1527 1526 1526 1525 1525 1525 1525 1525 1524 1524 1523 1522 1521 1520 1519 1518 1517 1516 1514 1512
1535 1534 1535 1534 1535 1534 1534 1534 1534 1533 1532 1532 1532 1531 1531 1530 1530 1529 1529 1529 1528 1527 1527 1527 1527 1526 1526 1525 1525 1526 1526 1525 1525 1525 1524 1523 1522 1520 1520 1518 1517 1516 1513
1534 1534 1534 1534 1534 1534 1534 1534 1533 1533 1533 1532 1532 1531 1531 1531 1530 1529 1529 1529 1528 1528 1527 1527 1527 1526 1526 1526 1526 1526 1526 1526 1526 1525 1525 1524 1523 1522 1521 1520 1519 1517 1515
1533 1534 1534 1534 1534 1533 1533 1533 1533 1533 1532 1532 1532 1531 1531 1531 1530 1530 1529 1529 1528 1528 1528 1527 1527 1527 1526 1526 1526 1526 1526 1526 1526 1526 1526 1525 1525 1524 1522 1521 1520 1519 1518
1532 1533 1533 1533 1533 1533 1533 1533 1533 1533 1532 1532 1532 1531 1531 1530 1530 1530 1529 1529 1528 1528 1528 1527 1527 1527 1527 1526 1526 1526 1526 1528 1527 1526 1526 1526 1525 1525 1524 1523 1522 1521 1520
1531 1532 1532 1533 1532 1532 1532 1532 1532 1532 1532 1531 1531 1531 1530 1530 1529 1529 1529 1529 1528 1528 1527 1527 1527 1527 1527 1527 1527 1527 1527 1527 1527 1527 1526 1526 1526 1525 1524 1524 1523 1522 1521
1530 1531 1531 1532 1532 1531 1531 1531 1531 1531 1531 1530 1530 1530 1529 1529 1529 1528 1528 1528 1527 1527 1527 1527 1527 1527 1527 1526 1527 1527 1528 1528 1528 1527 1527 1527 1526 1525 1525 1524 1523 1522 1521
1528 1529 1530 1530 1531 1531 1530 1530 1530 1530 1530 1530 1529 1529 1529 1528 1528 1527 1527 1527 1527 1526 1527 1526 1527 1527 1527 1527 1526 1527 1527 1527 1527 1527 1526 1526 1526 1525 1525 1524 1523 1523 1522
1527 1527 1528 1529 1529 1530 1530 1529 1529 1529 1529 1529 1528 1528 1528 1527 1527 1526 1526 1526 1526 1525 1526 1525 1526 1526 1526 1526 1526 1526 1526 1526 1526 1526 1525 1525 1524 1524 1524 1524 1523 1522 1522